Showing default

AZERSPACE 2/INTELSAT 38, 43632

Orbit data source: Space-Track

AZERSPACE 2/INTELSAT 38, 43632 is a payload satellite owned by Azerkosmos (AZ) in GEO that was launched on Tue, 25 Sep 2018 UTC via an ARIANE 5ECA launch vehicle from the French Guiana (FRGUI). Payload-class satellites include a variety of spacecraft equipped with specific instruments for various scientific and technological missions. These include communications satellites like Starlink; space stations such as the ISS; scientific satellites like the Hubble; Earth observation satellites from companies like Planet Labs, Umbra, and HawkEye 360; GPS; miniature CubeSats for education and research; and military/defense satellites.

Not visible in the next 10 days
Identifier
43632, 2018-074A
Orbit
GEO
Country
Flag of UnknownUnknown / AZER
Related business
Manufacturer
Maxar SSL
Mission
Operational Civil Communications
Bus & Motor
SSL-1300, R-4D
Mass
3,500 kg wet, ~2,000 kg dry
Launch date (UTC)
2018-09-25 (7 years ago)
Launch vehicle
ARIANE 5ECA
Launch site
French Guiana (FRGUI)
Object type
Payload
Rocket body
Debris
Shape & HBR
Box + 2 Pan, 13.5 m
Radar Cross Section
36.085 m², Large (>1 m²)

Expand to show TLE details & history
Last TLE update: 17 hours ago

TLE from 17 hours ago
0 AZERSPACE 2/INTELSAT 38
1 43632U 18074A   25303.05088571  .00000146  00000-0  00000-0 0  9996
2 43632   0.0168 242.6229 0001395 331.9419 247.5111  1.00271460 26145
Epoch: 2025-10-30T01:13Z
TLE epoch observation values (Epoch: 2025-10-30T01:13:16.525Z)
Latitude
-0.02192°
Longitude
45.09132°
Altitude
35,788.444 km
Speed
3.075 km/s
True Right ascension
06h 48m 06s
True Declination
0° 01' 19"
Sunlit
Object was in daylight at epoch
Visualization orbit readout
Latitude
Unknown
Longitude
Unknown
Altitude
Unknown
Speed
Unknown
Apparent Right ascension
Unknown
Apparent Declination
Unknown
Sunlit
N/A
Visualization observer readout
Local Sidereal Time
14:14:08
Azimuth
Unknown
Elevation
Unknown
Doppler factor
Unknown
Orbital elements
Apogee altitude
35,793.639 km
Perigee altitude
35,781.874 km
Semi-major axis
42,165.893 km
Eccentricity
0.00014
Inclination
0.0168°
RAAN
242.6229°
Arg. of periapsis
331.9419°
True anomaly
247.49633°
Mean anomaly
247.5111°
Eccentric anomaly
247.50372°
Mean motion
0.25067 °/min
Orbital period
1,436.15 mins
BSTAR
0
Loading maneuver chart data...
Computing Atmospheric mass density...
Loading historical data...
Loading historical data...
Loading historical data...
Loading historical data...
Loading historical data...
Loading historical data...
Loading historical data...
Other satellites on launch #74 in the year 2018 (2018-09-25 UTC)

Documentation

Showing up to 5 results
|